Simultaneous Nadir Overpasses (SNOs) Predictions

Prediction of SNOs between GOES-15 and METOP-C Satellite Orbit:

Table of predicted SNOs for the next 14.0 days since TLE Epoch: 1/7/2023
Index Date Time (GOES-15) GOES-15 Lat,Lon METOP-C Lat,Lon Distance(km) Time Diff (sec)
1 01/07/2023 17:50:27 -0.05,-127.89 -0.76,-124.76 357.13 80
2 01/09/2023 06:09:28 0.04,-127.98 -0.25,-129.36 156.35 80
3 01/10/2023 05:46:08 0.04,-128.00 0.88,-124.37 415.27 80
4 01/11/2023 18:04:58 -0.03,-127.98 0.15,-128.92 106.30 80
5 01/12/2023 17:46:58 -0.03,-128.00 -0.93,-123.91 465.58 80
6 01/14/2023 06:05:58 0.03,-128.09 -0.08,-128.51 48.25 80
7 01/16/2023 18:04:08 -0.03,-128.07 0.00,-128.06 3.16 80
8 01/19/2023 05:59:49 0.02,-128.16 0.13,-127.67 55.92 80
9 01/20/2023 18:18:38 -0.01,-128.10 0.92,-132.21 468.55 80
